EW4939 Weather Reports


Display with metric or nautical units.
time (UTC)temp
F
wind
direction
speed
MPH
gust
MPH
rain 1hr
in
rain 24hr
in
rain mn
in
humidity
%
barometer
mb
20260509094939 54 177 0.0 0.0 0.07 0.16 0.16 99 1009.0
20260509094435 54 178 0.0 0.0 0.07 0.16 0.16 99 1009.2
20260509093933 54 178 0.0 0.0 0.07 0.15 0.15 99 1009.2
20260509093430 54 178 0.0 0.0 0.07 0.15 0.15 99 1008.9
20260509092928 54 178 0.0 0.0 0.00 0.14 0.14 99 1009.1
20260509092426 54 178 0.0 0.0 0.00 0.14 0.14 99 1009.0
20260509091925 54 178 0.0 0.0 0.00 0.14 0.14 99 1009.2
20260509091421 54 178 0.0 0.0 0.05 0.14 0.14 99 1009.0
20260509090918 54 178 0.0 0.0 0.05 0.14 0.14 99 1009.3
20260509090415 54 178 0.0 0.0 0.00 0.13 0.13 99 1009.3
20260509085913 54 178 0.0 0.0 0.00 0.13 0.13 99 1009.2
20260509085410 54 178 0.0 0.0 0.07 0.13 0.13 99 1009.3
20260509084906 54 178 0.0 0.0 0.07 0.13 0.13 99 1009.5
20260509084403 54 178 0.0 0.0 0.00 0.12 0.12 99 1009.6
20260509083900 54 178 0.0 0.0 0.05 0.12 0.12 99 1009.8
20260509083357 54 178 0.0 0.0 0.05 0.12 0.12 99 1009.7
20260509082854 54 330 0.0 0.0 0.00 0.11 0.11 99 1009.6
20260509082351 54 330 0.0 0.0 0.07 0.11 0.11 99 1009.6
20260509081848 54 331 0.0 0.0 0.07 0.11 0.11 99 1009.7
20260509081345 54 330 0.0 0.0 0.05 0.10 0.10 99 1009.8
20260509080843 54 330 0.0 0.0 0.05 0.10 0.10 99 1009.7
20260509080341 54 330 0.0 0.0 0.00 0.09 0.09 99 1009.7
20260509075839 54 331 0.0 0.0 0.07 0.09 0.09 99 1009.6
20260509075335 54 331 0.0 0.0 0.00 0.08 0.08 99 1009.6
20260509074832 54 331 0.0 0.0 0.00 0.08 0.08 99 1009.6
20260509074330 54 331 0.0 0.0 0.05 0.08 0.08 99 1009.8
20260509073826 54 330 0.0 0.0 0.05 0.08 0.08 99 1009.5
20260509073323 54 331 0.0 0.0 0.00 0.07 0.07 99 1009.7
20260509072819 54 338 0.0 0.0 0.00 0.07 0.07 99 1009.6
20260509072316 54 338 0.0 0.0 0.00 0.07 0.07 99 1009.6
20260509071813 54 338 0.0 0.0 0.07 0.07 0.07 99 1009.7
20260509071310 54 338 0.0 0.0 0.07 0.07 0.07 99 1009.9
20260509070807 54 338 0.0 0.0 0.00 0.06 0.06 99 1010.0
20260509070303 54 338 0.0 0.0 0.05 0.06 0.06 99 1009.9
20260509065759 54 338 0.0 0.0 0.05 0.06 0.06 99 1010.1
20260509065256 54 337 0.0 0.0 0.00 0.05 0.05 99 1010.2
20260509064752 54 355 0.0 0.0 0.07 0.05 0.05 99 1010.2
20260509064250 54 355 0.0 0.0 0.07 0.05 0.05 99 1010.3
20260509063747 54 355 0.0 0.0 0.00 0.04 0.04 99 1010.4
20260509063243 54 355 0.0 0.0 0.00 0.04 0.04 99 1010.3
20260509062741 54 355 0.0 0.0 0.00 0.04 0.04 99 1010.3
20260509062238 54 355 0.0 0.0 0.05 0.04 0.04 99 1010.4
20260509061735 54 355 0.0 0.0 0.05 0.04 0.04 99 1010.5
20260509061233 54 356 0.0 0.0 0.00 0.03 0.03 99 1010.5
20260509060730 54 356 0.0 0.0 0.00 0.03 0.03 99 1010.4
20260509060226 54 356 0.0 0.0 0.00 0.03 0.03 99 1010.3
20260509055721 54 356 0.0 0.0 0.00 0.03 0.03 99 1010.2
20260509055218 54 356 0.0 0.0 0.00 0.03 0.03 99 1010.3
20260509054714 54 356 0.0 0.0 0.00 0.03 0.03 99 1010.1
20260509054212 54 356 0.0 0.0 0.07 0.03 0.03 99 1010.1
20260509053710 54 356 0.0 0.0 0.07 0.03 0.03 98 1010.2
20260509053207 54 356 0.0 0.0 0.00 0.02 0.02 98 1010.1
20260509052705 54 356 0.0 0.0 0.00 0.02 0.02 98 1010.4
20260509052202 54 356 0.0 0.0 0.00 0.02 0.02 98 1010.3
20260509051659 54 356 0.0 0.0 0.00 0.02 0.02 98 1010.3
20260509051157 54 356 0.0 0.0 0.00 0.02 0.02 98 1010.1
20260509050654 54 356 0.0 0.0 0.00 0.02 0.02 97 1010.3
20260509050150 54 356 0.0 0.0 0.00 0.02 0.02 97 1010.4
20260509045648 54 354 0.0 0.0 0.00 0.02 0.02 97 1010.2
20260509045144 54 20 0.0 0.0 0.07 0.02 0.02 97 1010.2
20260509044641 55 358 0.0 0.0 0.00 0.01 0.01 96 1010.5
20260509044139 55 358 0.0 0.0 0.00 0.01 0.01 96 1010.5
20260509043635 55 357 0.0 0.0 0.00 0.01 0.01 96 1010.5
20260509043131 55 357 0.0 0.0 0.00 0.01 0.01 95 1010.7
20260509042628 55 358 0.0 0.0 0.00 0.01 0.01 95 1010.6
20260509042123 55 358 0.0 0.0 0.05 0.01 0.01 94 1010.6
20260509041621 55 358 0.0 0.0 0.05 0.01 0.01 94 1010.7
20260509041118 55 357 0.0 0.0 0.00 0.00 0.00 93 1010.7
20260509040616 55 328 0.0 0.0 0.00 0.00 0.00 93 1010.6
20260509040113 55 328 0.0 0.0 0.00 0.00 0.00 93 1010.7
20260509035609 55 328 0.0 0.0 0.00 0.00 0.00 92 1010.6
20260509035106 55 328 0.0 0.0 0.00 0.00 0.00 92 1010.5
20260509034604 56 328 0.0 0.0 0.00 0.00 0.00 91 1010.8
20260509034101 56 328 0.0 0.0 0.00 0.00 0.00 90 1010.7
20260509033558 56 327 0.0 0.0 0.00 0.00 0.00 90 1010.6
20260509033055 56 336 1.0 1.0 0.00 0.00 0.00 89 1010.8
20260509032552 56 2 1.0 2.0 0.00 0.00 0.00 89 1010.9
20260509032049 56 314 0.0 0.0 0.00 0.00 0.00 89 1011.0
20260509031547 56 315 0.0 0.0 0.00 0.00 0.00 88 1011.0
20260509031044 56 24 1.0 2.0 0.00 0.00 0.00 88 1010.7
20260509030542 57 45 0.0 0.0 0.00 0.00 0.00 87 1010.9
20260509030039 57 351 0.0 0.0 0.00 0.00 0.00 87 1010.9
20260509025535 57 27 2.0 3.0 0.00 0.00 0.00 86 1011.1
20260509025030 57 6 1.0 1.0 0.00 0.00 0.00 86 1011.1
20260509024527 57 347 2.0 2.0 0.00 0.00 0.00 86 1011.3
20260509024023 57 322 1.0 3.0 0.00 0.00 0.00 85 1011.3
20260509023521 57 312 2.0 4.0 0.00 0.00 0.00 86 1011.1
20260509023017 57 299 1.0 2.0 0.00 0.00 0.00 87 1011.3
20260509022514 57 15 2.0 3.0 0.00 0.00 0.00 86 1011.3
20260509022012 57 25 1.0 3.0 0.00 0.00 0.00 87 1011.3
20260509021509 57 309 2.0 2.0 0.00 0.00 0.00 88 1011.1
20260509021005 57 356 0.0 0.0 0.00 0.00 0.00 87 1010.8
20260509020504 56 352 0.0 0.0 0.00 0.00 0.00 89 1010.6
20260509020000 56 107 0.0 0.0 0.00 0.00 0.00 92 1010.8
20260509015459 56 107 0.0 0.0 0.00 0.00 0.00 92 1010.4
20260509014956 56 106 0.0 0.0 0.00 0.00 0.00 92 1010.4
20260509014453 56 106 0.0 0.0 0.00 0.00 0.00 91 1010.5
20260509013948 56 107 0.0 0.0 0.00 0.00 0.00 91 1010.6
20260509013446 57 107 0.0 0.0 0.00 0.00 0.00 90 1010.3
20260509012941 57 107 0.0 0.0 0.00 0.00 0.00 87 1010.5
20260509012438 58 156 0.0 0.0 0.00 0.00 0.00 83 1010.6
20260509011935 57 179 0.0 1.0 0.00 0.00 0.00 82 1010.4
20260509011433 59 61 0.0 2.0 0.00 0.00 0.00 81 1010.3
20260509010931 59 320 0.0 0.0 0.00 0.00 0.00 80 1010.6
20260509010428 59 23 1.0 2.0 0.00 0.00 0.00 78 1010.6
20260509005924 59 341 2.0 3.0 0.00 0.00 0.00 83 1010.6
20260509005423 59 167 0.0 0.0 0.00 0.00 0.00 80 1010.4
20260509004922 59 167 0.0 0.0 0.00 0.00 0.00 79 1010.3
20260509004419 59 167 0.0 0.0 0.00 0.00 0.00 79 1010.2
20260509003917 60 167 0.0 0.0 0.00 0.00 0.00 78 1009.9
20260509003415 60 167 0.0 0.0 0.00 0.00 0.00 77 1009.8
20260509002911 60 167 0.0 0.0 0.00 0.00 0.00 80 1009.8
20260509002410 60 167 0.0 0.0 0.00 0.00 0.00 83 1009.8
20260509001906 60 167 0.0 0.0 0.00 0.00 0.00 82 1009.8
20260509001402 60 167 0.0 0.0 0.00 0.00 0.00 83 1009.9
20260509000900 60 167 0.0 0.0 0.00 0.00 0.00 83 1010.2
20260509000358 60 167 0.0 0.0 0.00 0.00 0.00 82 1010.2
20260508235853 60 167 0.0 0.0 0.00 0.00 0.00 81 1009.9
20260508235351 60 167 0.0 0.0 0.00 0.00 0.00 80 1010.0
20260508234848 60 167 0.0 0.0 0.00 0.00 0.00 77 1010.0
20260508234344 60 167 0.0 0.0 0.00 0.00 0.00 76 1009.9
20260508233843 60 167 0.0 0.0 0.00 0.00 0.00 78 1009.7
20260508233342 60 167 0.0 0.0 0.00 0.00 0.00 81 1009.6
20260508232838 60 167 0.0 0.0 0.00 0.00 0.00 78 1009.7
20260508232334 61 167 0.0 0.0 0.00 0.00 0.00 77 1009.9
20260508231833 61 167 0.0 0.0 0.00 0.00 0.00 74 1010.1
20260508231329 62 167 0.0 0.0 0.00 0.00 0.00 70 1010.0
20260508230826 63 167 0.0 0.0 0.00 0.00 0.00 68 1010.0
20260508230322 64 167 0.0 0.0 0.00 0.00 0.00 64 1009.9
20260508225820 64 167 0.0 0.0 0.00 0.00 0.00 59 1009.7
20260508225316 66 167 0.0 0.0 0.00 0.00 0.00 53 1009.8
20260508224814 66 167 0.0 0.0 0.00 0.00 0.00 50 1009.9
20260508224312 67 186 0.0 0.0 0.00 0.00 0.00 47 1009.8
20260508223809 67 142 1.0 2.0 0.00 0.00 0.00 46 1009.6
20260508223306 67 181 0.0 1.0 0.00 0.00 0.00 45 1009.5
20260508222804 67 156 0.0 1.0 0.00 0.00 0.00 45 1009.8
20260508222301 67 156 0.0 0.0 0.00 0.00 0.00 45 1009.6
20260508221757 67 156 1.0 1.0 0.00 0.00 0.00 46 1009.7
20260508221253 68 177 0.0 1.0 0.00 0.00 0.00 44 1009.6
20260508220749 68 156 1.0 1.0 0.00 0.00 0.00 43 1009.8
20260508220246 67 164 2.0 2.0 0.00 0.00 0.00 44 1009.6
20260508215742 67 201 1.0 1.0 0.00 0.00 0.00 43 1009.6
20260508215239 68 194 1.0 2.0 0.00 0.00 0.00 43 1009.5
20260508214737 68 218 1.0 2.0 0.00 0.00 0.00 42 1009.6
20260508214234 68 171 2.0 2.0 0.00 0.00 0.00 43 1009.3
20260508213730 68 162 2.0 2.0 0.00 0.00 0.00 42 1009.7
20260508213226 68 193 1.0 6.0 0.00 0.00 0.00 42 1009.7
20260508212723 68 157 1.0 2.0 0.00 0.00 0.00 44 1009.7
20260508212219 68 165 0.0 4.0 0.00 0.00 0.00 43 1009.6
20260508211715 68 165 2.0 3.0 0.00 0.00 0.00 43 1009.7
20260508211211 68 148 1.0 2.0 0.00 0.00 0.00 43 1009.8
20260508210709 68 181 5.0 6.0 0.00 0.00 0.00 41 1009.9
20260508210206 68 202 1.0 3.0 0.00 0.00 0.00 42 1009.9
20260508205702 68 212 1.0 2.0 0.00 0.00 0.00 43 1010.1
20260508205159 68 148 1.0 3.0 0.00 0.00 0.00 42 1010.0
20260508204655 68 149 0.0 1.0 0.00 0.00 0.00 44 1010.6
20260508204151 68 207 2.0 2.0 0.00 0.00 0.00 41 1010.5
20260508203648 68 172 0.0 3.0 0.00 0.00 0.00 41 1010.5
20260508203144 68 162 1.0 2.0 0.00 0.00 0.00 41 1010.8
20260508202640 68 194 1.0 2.0 0.00 0.00 0.00 42 1010.6
20260508202138 68 183 2.0 3.0 0.00 0.00 0.00 41 1010.7
20260508201634 68 180 5.0 6.0 0.00 0.00 0.00 40 1010.8
20260508201131 68 237 2.0 4.0 0.00 0.00 0.00 40 1010.7
20260508200628 68 162 1.0 1.0 0.00 0.00 0.00 43 1010.9
20260508200123 69 159 3.0 6.0 0.00 0.00 0.00 40 1010.9
20260508195620 69 195 3.0 4.0 0.00 0.00 0.00 41 1010.9
20260508195117 68 353 1.0 2.0 0.00 0.00 0.00 42 1010.7
20260508194613 68 206 2.0 3.0 0.00 0.00 0.00 42 1010.9
20260508194111 68 203 0.0 1.0 0.00 0.00 0.00 42 1011.1
20260508193607 68 184 2.0 3.0 0.00 0.00 0.00 41 1011.0
20260508193104 68 193 4.0 6.0 0.00 0.00 0.00 41 1011.0
20260508192600 68 194 1.0 3.0 0.00 0.00 0.00 40 1011.2
20260508192058 68 143 3.0 7.0 0.00 0.00 0.00 41 1011.2
20260508191554 68 192 4.0 6.0 0.00 0.00 0.00 40 1011.3
20260508191051 68 270 2.0 4.0 0.00 0.00 0.00 39 1011.4
20260508190548 69 179 5.0 7.0 0.00 0.00 0.00 40 1011.6
20260508190045 69 216 1.0 8.0 0.00 0.00 0.00 38 1011.4
20260508185542 70 150 4.0 4.0 0.00 0.00 0.00 39 1011.4
20260508185039 70 173 3.0 4.0 0.00 0.00 0.00 38 1011.7
20260508184537 70 182 4.0 6.0 0.00 0.00 0.00 39 1011.8
20260508184033 70 202 1.0 6.0 0.00 0.00 0.00 38 1011.7
20260508183530 69 162 3.0 6.0 0.00 0.00 0.00 39 1012.0
20260508183026 69 209 3.0 9.0 0.00 0.00 0.00 39 1012.1
20260508182523 69 186 2.0 7.0 0.00 0.00 0.00 39 1012.1
20260508182019 69 198 2.0 6.0 0.00 0.00 0.00 42 1012.1
20260508181514 69 181 1.0 3.0 0.00 0.00 0.00 40 1012.2
20260508181013 68 190 3.0 7.0 0.00 0.00 0.00 39 1012.4
20260508180509 68 207 3.0 7.0 0.00 0.00 0.00 39 1012.4
20260508180005 68 217 2.0 7.0 0.00 0.00 0.00 39 1012.7
20260508175502 69 311 2.0 4.0 0.00 0.00 0.00 41 1012.7
20260508174959 69 183 4.0 7.0 0.00 0.00 0.00 43 1012.5
20260508174457 69 164 6.0 10.0 0.00 0.00 0.00 42 1012.7
20260508173953 68 197 1.0 6.0 0.00 0.00 0.00 43 1012.7
20260508173451 67 189 3.0 7.0 0.00 0.00 0.00 41 1012.9
20260508172946 67 202 4.0 6.0 0.00 0.00 0.00 40 1013.2
20260508172444 67 264 0.0 8.0 0.00 0.00 0.00 45 1013.3
20260508171940 67 190 1.0 3.0 0.00 0.00 0.00 45 1013.2
20260508171436 66 99 0.0 3.0 0.00 0.00 0.00 49 1013.2
20260508170933 66 195 3.0 9.0 0.00 0.00 0.00 46 1013.4
20260508170431 66 186 3.0 9.0 0.00 0.00 0.00 45 1013.4
20260508165927 66 169 0.0 7.0 0.00 0.00 0.00 47 1013.5
20260508165426 66 197 2.0 3.0 0.00 0.00 0.00 45 1013.5
20260508164921 66 198 2.0 9.0 0.00 0.00 0.00 45 1013.6
20260508164418 66 176 4.0 8.0 0.00 0.00 0.00 45 1013.9
20260508163915 67 174 2.0 9.0 0.00 0.00 0.00 45 1013.9
20260508163413 66 225 3.0 7.0 0.00 0.00 0.00 45 1014.0
20260508162908 67 189 1.0 7.0 0.00 0.00 0.00 45 1014.0
20260508162406 66 164 4.0 6.0 0.00 0.00 0.00 46 1014.2
20260508161903 66 192 3.0 14.0 0.00 0.00 0.00 45 1014.1
20260508161400 67 176 6.0 8.0 0.00 0.00 0.00 45 1014.0
20260508160857 66 171 4.0 6.0 0.00 0.00 0.00 46 1014.3
20260508160356 66 182 5.0 8.0 0.00 0.00 0.00 47 1014.1
20260508155852 66 231 2.0 4.0 0.00 0.00 0.00 48 1014.1
20260508155349 66 236 2.0 3.0 0.00 0.00 0.00 48 1014.3
20260508154846 66 201 1.0 4.0 0.00 0.00 0.00 49 1014.3
20260508154344 65 280 1.0 3.0 0.00 0.00 0.00 49 1014.6
20260508153840 64 183 2.0 3.0 0.00 0.00 0.00 49 1014.4
20260508153337 64 267 4.0 7.0 0.00 0.00 0.00 50 1014.6
20260508152833 64 134 4.0 8.0 0.00 0.00 0.00 49 1014.7
20260508152330 63 243 4.0 6.0 0.00 0.00 0.00 49 1014.6
20260508151826 63 200 2.0 3.0 0.00 0.00 0.00 50 1014.8
20260508151323 63 161 2.0 9.0 0.00 0.00 0.00 49 1014.8
20260508150819 63 146 5.0 7.0 0.00 0.00 0.00 49 1014.6
20260508150316 62 139 3.0 6.0 0.00 0.00 0.00 52 1014.8
20260508145812 62 305 2.0 4.0 0.00 0.00 0.00 52 1014.8
20260508145309 61 152 4.0 7.0 0.00 0.00 0.00 52 1015.0
20260508144806 61 196 1.0 6.0 0.00 0.00 0.00 51 1015.0
20260508144304 61 210 4.0 7.0 0.00 0.00 0.00 50 1015.0
20260508143801 60 195 2.0 6.0 0.00 0.00 0.00 52 1015.1
20260508143258 60 205 5.0 9.0 0.00 0.00 0.00 51 1014.9
20260508142754 59 291 1.0 2.0 0.00 0.00 0.00 53 1014.9
20260508142251 59 195 2.0 6.0 0.00 0.00 0.00 52 1015.1
20260508141748 59 199 4.0 7.0 0.00 0.00 0.00 52 1015.1
20260508141245 58 194 4.0 8.0 0.00 0.00 0.00 52 1015.3
20260508140742 58 166 1.0 6.0 0.00 0.00 0.00 52 1015.1
20260508140239 58 342 3.0 8.0 0.00 0.00 0.00 53 1015.4
20260508135735 58 163 2.0 6.0 0.00 0.00 0.00 52 1015.3
20260508135231 58 192 2.0 3.0 0.00 0.00 0.00 53 1015.2
20260508134727 58 252 2.0 9.0 0.00 0.00 0.00 52 1015.2
20260508134224 58 180 2.0 4.0 0.00 0.00 0.00 52 1015.4
20260508133721 57 241 3.0 6.0 0.00 0.00 0.00 51 1015.3
20260508133219 57 219 1.0 6.0 0.00 0.00 0.00 54 1015.1
20260508132716 57 164 2.0 4.0 0.00 0.00 0.00 54 1015.2
20260508132214 55 165 5.0 7.0 0.00 0.00 0.00 54 1015.2
20260508131709 55 209 2.0 4.0 0.00 0.00 0.00 55 1015.3
20260508131206 55 163 3.0 4.0 0.00 0.00 0.00 54 1015.2
20260508130702 55 185 3.0 7.0 0.00 0.00 0.00 55 1015.2
20260508130159 55 146 1.0 3.0 0.00 0.00 0.00 55 1015.1
20260508125655 56 189 2.0 6.0 0.00 0.00 0.00 54 1015.0
20260508125151 56 192 1.0 4.0 0.00 0.00 0.00 53 1015.1
20260508124650 55 188 1.0 4.0 0.00 0.00 0.00 54 1015.2
20260508124146 55 175 2.0 7.0 0.00 0.00 0.00 52 1015.2
20260508123645 54 168 4.0 4.0 0.00 0.00 0.00 55 1015.2
20260508123142 54 209 5.0 7.0 0.00 0.00 0.00 56 1014.8
20260508122638 53 188 1.0 4.0 0.00 0.00 0.00 56 1015.0
20260508122135 53 184 2.0 4.0 0.00 0.00 0.00 57 1015.0
20260508121633 53 160 2.0 8.0 0.00 0.00 0.00 57 1014.9
20260508121131 52 168 2.0 4.0 0.00 0.00 0.00 59 1015.2
20260508120628 52 191 1.0 2.0 0.00 0.00 0.00 60 1015.0
20260508120127 51 174 0.0 0.0 0.00 0.00 0.00 61 1015.2
20260508115624 51 168 2.0 3.0 0.00 0.00 0.00 62 1014.8
20260508115120 50 178 2.0 3.0 0.00 0.00 0.00 62 1014.9
20260508114618 50 204 2.0 3.0 0.00 0.00 0.00 62 1014.9
20260508114113 50 190 2.0 3.0 0.00 0.00 0.00 62 1015.0
20260508113611 51 161 0.0 1.0 0.00 0.00 0.00 62 1014.9
20260508113109 51 191 0.0 2.0 0.00 0.00 0.00 61 1014.8
20260508112605 51 149 1.0 2.0 0.00 0.00 0.00 61 1014.6
20260508112102 51 175 1.0 3.0 0.00 0.00 0.00 60 1014.7
20260508111559 51 169 2.0 3.0 0.00 0.00 0.00 60 1014.8
20260508111056 51 156 3.0 4.0 0.00 0.00 0.00 59 1014.9
20260508110554 51 160 1.0 2.0 0.00 0.00 0.00 59 1014.8
20260508110049 51 158 1.0 1.0 0.00 0.00 0.00 59 1014.6
20260508105544 51 177 1.0 2.0 0.00 0.00 0.00 58 1014.5
20260508105042 51 190 1.0 4.0 0.00 0.00 0.00 58 1014.5
20260508104540 51 164 1.0 2.0 0.00 0.00 0.00 59 1014.5
20260508104036 51 175 2.0 2.0 0.00 0.00 0.00 59 1014.5
20260508103533 51 155 0.0 1.0 0.00 0.00 0.00 60 1014.7
20260508103031 51 238 0.0 0.0 0.00 0.00 0.00 59 1014.7
20260508102528 51 197 1.0 2.0 0.00 0.00 0.00 58 1014.7
20260508102026 51 170 1.0 1.0 0.00 0.00 0.00 58 1014.6
20260508101523 51 167 0.0 3.0 0.00 0.00 0.00 58 1014.6
20260508101020 51 180 2.0 3.0 0.00 0.00 0.00 59 1014.5
20260508100518 51 170 1.0 3.0 0.00 0.00 0.00 59 1014.4
20260508100015 51 247 0.0 2.0 0.00 0.00 0.00 59 1014.5
20260508095512 51 172 1.0 2.0 0.00 0.00 0.00 59 1014.5